Weather observations for the past three days for
Lehighton Jake Arner Memorial Airport
Imperial (Metric)
Date Time (edt) Wind (mph) Vis. (mi.) Weather Sky Cond. Temperature (ºF) Relative Humidity Wind Chill (°F) Heat Index (°F) Pressure Precipitation (in)
Air Dwpt 6 hour altimeter (in) sea level (mb) 1 hr 3 hr 6 hr
Max. Min.
04 22:35 Calm 10.00 Partly Cloudy SCT085 50 42.8 76% 29.83 0.0
04 22:15 Calm 10.00 Fair CLR 51.8 42.8 72% 29.84 0.0
04 21:55 Calm 10.00 Fair CLR 51.8 42.8 72% 29.83 0.0
04 21:35 Calm 10.00 Fair CLR 55.4 42.8 63% 29.83 0.0
04 21:15 Calm 10.00 Fair CLR 59 41 51% 29.82 0.0
04 20:55 Calm 10.00 Fair CLR 64.4 37.4 37% 29.81 0.0
04 20:35 S 3 10.00 Fair CLR 66.2 35.6 32% 29.81 0.0
04 20:15 S 7 10.00 Fair CLR 68 35.6 30% 29.8 0.0
04 19:55 S 3 10.00 Fair CLR 68 35.6 30% 29.79 0.0
04 19:35 Calm 10.00 Fair CLR 69.8 35.6 29% 29.78 0.0
04 19:15 SW 5 10.00 Fair CLR 69.8 35.6 29% 29.78 0.0
04 18:55 S 3 10.00 Fair CLR 71.6 35.6 27% 29.78 0.0
04 18:35 S 8 10.00 Fair CLR 71.6 35.6 27% 29.77 0.0
04 18:15 S 6 10.00 Fair CLR 71.6 35.6 27% 29.78 0.0
04 17:55 W 7 10.00 Fair CLR 71.6 35.6 27% 29.78 0.0
04 17:35 W 7 10.00 Fair CLR 71.6 35.6 27% 29.78 0.0
04 17:15 SW 9 10.00 Fair CLR 71.6 35.6 27% 29.78 0.0
04 16:55 W 6 10.00 Partly Cloudy SCT080 71.6 33.8 25% 29.79 0.0
04 16:35 SW 7 G 16 10.00 Partly Cloudy SCT080 71.6 35.6 27% 29.8 0.0
04 16:15 SW 8 10.00 Partly Cloudy SCT080 71.6 33.8 25% 29.8 0.0
04 15:55 SW 6 10.00 Partly Cloudy SCT080 71.6 33.8 25% 29.81 0.0
04 15:35 SW 12 G 17 10.00 Partly Cloudy SCT075 71.6 33.8 25% 29.82 0.0
04 15:15 S 10 G 17 10.00 Fair CLR 71.6 35.6 27% 29.82 0.0
04 14:55 SW 8 10.00 Fair CLR 69.8 33.8 27% 29.83 0.0
04 14:35 W 8 G 17 10.00 Fair CLR 69.8 33.8 27% 29.83 0.0
04 14:15 SW 9 G 18 10.00 Fair CLR 69.8 33.8 27% 29.84 0.0
04 13:55 W 6 G 16 10.00 Fair CLR 69.8 33.8 27% 29.85 0.0
04 13:35 SW 12 G 20 10.00 Fair CLR 68 33.8 28% 29.86 0.0
04 13:15 W 8 G 16 10.00 Fair CLR 68 33.8 28% 29.87 0.0
04 12:55 SW 6 10.00 Fair CLR 68 33.8 28% 29.87 0.0
04 12:35 SW 9 G 18 10.00 Fair CLR 66.2 32 28% 29.88 0.0
04 12:15 W 12 G 21 10.00 Partly Cloudy SCT120 66.2 32 28% 29.89 0.0
04 11:55 S 9 10.00 Partly Cloudy SCT120 64.4 32 30% 29.9 0.0
04 11:35 SW 7 10.00 Partly Cloudy SCT120 62.6 32 32% 29.91 0.0
04 11:15 W 5 10.00 Fair CLR 62.6 30.2 30% 29.91 0.0
04 10:55 W 8 10.00 Partly Cloudy SCT120 62.6 30.2 30% 29.91 0.0
04 10:35 SW 7 10.00 Mostly Cloudy BKN120 60.8 32 34% 29.92 0.0
04 10:15 W 6 10.00 Partly Cloudy SCT080 SCT120 59 32 36% 29.92 0.0
04 09:55 W 8 10.00 Mostly Cloudy BKN080 59 32 36% 29.92 0.0
04 09:35 W 3 10.00 Overcast OVC080 55.4 32 41% 29.93 0.0
04 09:15 Calm 10.00 Overcast OVC080 51.8 33.8 50% 29.93 0.0
04 08:55 Calm 10.00 Overcast OVC080 50 33.8 54% 29.94 0.0
04 08:35 Calm 10.00 Mostly Cloudy BKN070 46.4 33.8 62% 29.95 0.0
04 08:15 Calm 10.00 Mostly Cloudy BKN070 42.8 33.8 71% 29.95 0.0
04 07:55 Calm 10.00 Partly Cloudy SCT070 39.2 33.8 81% 29.95 0.0
04 07:35 Calm 10.00 Fair CLR 35.6 33.8 93% 29.95 0.0
04 07:15 Calm 10.00 Fair CLR 32 32 100% 29.95 0.0
04 06:55 Calm 10.00 Fair CLR 32 32 100% 29.95 0.0
04 06:35 Calm 10.00 Fair CLR 32 30.2 93% 29.95 0.0
04 06:15 Calm 10.00 Fair CLR 32 30.2 93% 29.95 0.0
04 05:55 Calm 10.00 Fair CLR 32 30.2 93% 29.95 0.0
04 05:35 Calm 10.00 Fair CLR 32 30.2 93% 29.95 0.0
04 05:15 Calm 10.00 Fair CLR 32 30.2 93% 29.95 0.0
04 04:55 Calm 10.00 Fair CLR 32 30.2 93% 29.95 0.0
04 04:35 Calm 10.00 Fair CLR 32 32 100% 29.95 0.0
04 04:15 Calm 10.00 Fair CLR 32 32 100% 29.95 0.0
04 03:55 Calm 10.00 Fair CLR 32 32 100% 29.95 0.0
04 03:35 Calm 10.00 Fair CLR 32 32 100% 29.95 0.0
04 03:15 Calm 10.00 Fair CLR 32 32 100% 29.95 0.0
04 02:55 Calm 10.00 Fair CLR 32 32 100% 29.95 0.0
04 02:35 Calm 10.00 Fair CLR 33.8 32 93% 29.95 0.0
04 02:15 Calm 10.00 Fair CLR 33.8 32 93% 29.95 0.0
04 01:55 Calm 10.00 Fair CLR 33.8 32 93% 29.95 0.0
04 01:35 Calm 10.00 Fair CLR 33.8 32 93% 29.95 0.0
04 01:15 Calm 10.00 Fair CLR 33.8 32 93% 29.94 0.0
04 00:55 Calm 10.00 Fair CLR 33.8 32 93% 29.94 0.0
04 00:35 Calm 10.00 Fair CLR 35.6 32 87% 29.94 0.0
04 00:15 Calm 10.00 Fair CLR 35.6 33.8 93% 29.94 0.0
03 23:55 Calm 10.00 Fair CLR 35.6 32 87% 29.93 0.0
03 23:35 Calm 10.00 Fair CLR 37.4 33.8 87% 29.92 0.0
03 23:15 Calm 10.00 Fair CLR 37.4 33.8 87% 29.92 0.0
03 22:55 Calm 10.00 Fair CLR 39.2 33.8 81% 29.92 0.0
03 22:35 Calm 10.00 Fair CLR 39.2 33.8 81% 29.92 0.0
03 22:15 Calm 10.00 Fair CLR 41 33.8 76% 29.92 0.0
03 21:55 Calm 10.00 Fair CLR 41 33.8 76% 29.92 0.0
03 21:35 Calm 10.00 Fair CLR 42.8 32 66% 29.92 0.0
03 21:15 Calm 10.00 Fair CLR 44.6 33.8 66% 29.91 0.0
03 20:55 Calm 10.00 Fair CLR 48.2 30.2 50% 29.91 0.0
03 20:35 Calm 10.00 Fair CLR 53.6 26.6 35% 29.9 0.0
03 20:15 W 6 10.00 Partly Cloudy SCT090 55.4 24.8 31% 29.89 0.0
03 19:55 W 5 10.00 Partly Cloudy SCT090 55.4 26.6 33% 29.89 0.0
03 19:35 W 3 10.00 Fair CLR 57.2 23 27% 29.88 0.0
03 19:15 W 7 10.00 Partly Cloudy SCT095 59 23 25% 29.88 0.0
03 18:55 W 5 10.00 Partly Cloudy SCT095 59 23 25% 29.87 0.0
03 18:35 W 7 10.00 Mostly Cloudy BKN095 59 23 25% 29.87 0.0
03 18:15 W 8 10.00 Mostly Cloudy BKN095 59 23 25% 29.87 0.0
03 17:55 W 7 10.00 Mostly Cloudy BKN085 59 23 25% 29.87 0.0
03 17:35 W 13 G 22 10.00 Mostly Cloudy BKN085 60.8 21.2 22% 29.87 0.0
03 17:15 W 9 10.00 Mostly Cloudy BKN085 60.8 23 23% 29.87 0.0
03 16:55 W 6 10.00 Partly Cloudy SCT085 59 23 25% 29.87 0.0
03 16:35 W 9 10.00 Partly Cloudy SCT085 59 21.2 23% 29.87 0.0
03 16:15 W 9 G 16 10.00 Mostly Cloudy BKN085 59 21.2 23% 29.88 0.0
03 15:55 W 13 G 17 10.00 Partly Cloudy SCT085 59 21.2 23% 29.88 0.0
03 15:35 NW 3 G 18 10.00 Partly Cloudy SCT075 57.2 21.2 25% 29.89 0.0
03 15:15 W 8 G 21 10.00 Mostly Cloudy BKN075 57.2 21.2 25% 29.9 0.0
03 14:55 W 5 10.00 Mostly Cloudy BKN075 55.4 21.2 26% 29.9 0.0
03 14:35 W 8 G 16 10.00 Partly Cloudy SCT075 55.4 21.2 26% 29.91 0.0
03 14:15 W 10 G 17 10.00 Mostly Cloudy BKN075 53.6 21.2 28% 29.92 0.0
03 13:55 NW 9 10.00 Partly Cloudy SCT075 53.6 21.2 28% 29.92 0.0
03 13:35 W 8 G 18 10.00 Mostly Cloudy BKN075 53.6 21.2 28% 29.92 0.0
03 13:15 W 9 G 16 10.00 Mostly Cloudy BKN075 53.6 21.2 28% 29.93 0.0
03 12:55 W 6 10.00 Mostly Cloudy BKN075 51.8 19.4 28% 29.94 0.0
03 12:35 W 3 10.00 Mostly Cloudy BKN075 53.6 21.2 28% 29.94 0.0
03 12:15 W 8 G 16 10.00 Mostly Cloudy BKN065 51.8 21.2 30% 29.94 0.0
03 11:55 NW 7 10.00 Mostly Cloudy BKN065 51.8 21.2 30% 29.95 0.0
03 11:35 NW 9 10.00 Overcast OVC065 48.2 21.2 34% 45 29.95 0.0
03 11:15 W 7 10.00 Mostly Cloudy BKN065 50 23 35% 48 29.95 0.0
03 10:55 NW 6 10.00 Mostly Cloudy SCT050 BKN065 50 26.6 40% 48 29.95 0.0
03 10:35 N 6 10.00 Mostly Cloudy SCT048 BKN050 BKN065 46.4 24.8 43% 44 29.96 0.0
03 10:15 W 9 10.00 Mostly Cloudy BKN046 BKN060 46.4 28.4 50% 42 29.96 0.0
03 09:55 NW 6 10.00 Mostly Cloudy SCT043 BKN049 BKN060 46.4 28.4 50% 44 29.96 0.0
03 09:35 NW 3 10.00 Mostly Cloudy BKN040 BKN047 BKN060 44.6 28.4 53% 29.97 0.0
03 09:15 NW 6 10.00 Mostly Cloudy SCT038 SCT050 BKN080 44.6 30.2 57% 42 29.97 0.0
03 08:55 NW 6 10.00 Overcast SCT038 SCT046 OVC080 42.8 28.4 57% 40 29.97 0.0
03 08:35 NW 7 10.00 Mostly Cloudy SCT038 SCT049 BKN080 42.8 28.4 57% 39 29.97 0.0
03 08:15 NW 6 10.00 Partly Cloudy SCT080 42.8 28.4 57% 40 29.96 0.0
03 07:55 NW 3 10.00 Fair CLR 42.8 28.4 57% 29.96 0.0
03 07:35 W 7 10.00 Fair CLR 42.8 28.4 57% 39 29.95 0.0
03 07:15 NW 5 10.00 Partly Cloudy SCT085 41 28.4 61% 38 29.95 0.0
03 06:55 NW 6 10.00 Mostly Cloudy BKN085 41 28.4 61% 38 29.94 0.0
03 06:35 NW 6 10.00 Overcast OVC085 41 28.4 61% 38 29.92 0.0
03 06:15 NW 3 10.00 Overcast OVC085 41 28.4 61% 29.92 0.0
03 05:55 Calm 10.00 Overcast OVC085 42.8 28.4 57% 29.91 0.0
03 05:35 NW 6 10.00 Overcast OVC085 42.8 28.4 57% 40 29.91 0.0
03 05:15 Calm 10.00 Overcast OVC085 42.8 28.4 57% 29.91 0.0
03 04:55 Calm 10.00 Overcast OVC085 42.8 28.4 57% 29.9 0.0
03 04:35 Calm 10.00 Overcast OVC085 42.8 26.6 53% 29.9 0.0
03 04:15 NW 3 10.00 Overcast SCT065 OVC075 42.8 28.4 57% 29.9 0.0
03 03:55 Calm 10.00 Overcast SCT065 OVC075 42.8 28.4 57% 29.9 0.0
03 03:35 N 5 10.00 Overcast SCT065 OVC085 42.8 28.4 57% 41 29.9 0.0
03 03:15 N 5 10.00 Overcast BKN065 OVC085 42.8 28.4 57% 41 29.9 0.0
03 02:35 N 6 10.00 Overcast OVC085 44.6 28.4 53% 42 29.9 0.0
03 02:15 Calm 10.00 Overcast OVC085 44.6 28.4 53% 29.9 0.0
03 01:55 NW 6 10.00 Overcast SCT065 SCT075 OVC085 44.6 28.4 53% 42 29.9 0.0
03 01:35 N 5 10.00 Overcast BKN065 OVC085 44.6 28.4 53% 43 29.9 0.0
03 01:15 Calm 10.00 Overcast BKN065 BKN070 OVC085 46.4 28.4 50% 29.91 0.0
03 00:55 Calm 10.00 Overcast OVC065 46.4 30.2 53% 29.91 0.0
03 00:35 Calm 10.00 Overcast OVC065 46.4 30.2 53% 29.92 0.0
03 00:15 Calm 10.00 Overcast BKN065 OVC090 46.4 28.4 50% 29.92 0.0
02 23:55 Calm 10.00 Overcast SCT065 OVC090 46.4 30.2 53% 29.92 0.0
02 23:35 Calm 10.00 Overcast OVC090 46.4 30.2 53% 29.92 0.0
02 23:15 NW 5 10.00 Overcast OVC090 48.2 30.2 50% 47 29.92 0.0
02 22:55 NW 3 10.00 Overcast SCT060 OVC090 46.4 30.2 53% 29.92 0.0
02 22:35 Calm 10.00 Overcast SCT060 OVC090 46.4 30.2 53% 29.92 0.0
02 22:15 NW 5 10.00 Overcast OVC090 46.4 32 57% 45 29.92 0.0
02 21:55 Calm 10.00 Overcast OVC090 46.4 32 57% 29.92 0.0
02 21:35 Calm 10.00 Overcast OVC090 50 30.2 47% 29.91 0.0
02 21:15 Calm 10.00 Overcast OVC090 50 28.4 43% 29.91 0.0
02 20:55 NW 3 10.00 Overcast OVC090 50 26.6 40% 29.91 0.0
02 20:35 NW 5 10.00 Overcast OVC090 50 26.6 40% 49 29.9 0.0
02 20:15 NW 5 10.00 Overcast OVC090 51.8 26.6 38% 29.9 0.0
02 19:55 N 3 10.00 Overcast OVC090 51.8 24.8 35% 29.89 0.0
02 19:35 NW 3 10.00 Mostly Cloudy BKN090 51.8 26.6 38% 29.88 0.0
02 19:15 W 3 10.00 Mostly Cloudy SCT075 BKN090 53.6 26.6 35% 29.89 0.0
02 18:55 NW 5 10.00 Overcast OVC075 53.6 24.8 33% 29.88 0.0
02 18:35 Calm 10.00 Overcast OVC075 55.4 24.8 31% 29.88 0.0
02 18:15 NW 7 10.00 Overcast SCT075 OVC085 55.4 24.8 31% 29.87 0.0
02 17:55 NW 5 10.00 Overcast OVC075 53.6 26.6 35% 29.88 0.0
02 17:35 N 6 10.00 Mostly Cloudy BKN070 BKN085 53.6 26.6 35% 29.87 0.0
02 17:15 W 6 10.00 Mostly Cloudy BKN085 55.4 23 28% 29.86 0.0
02 16:55 W 5 10.00 Mostly Cloudy SCT070 BKN085 53.6 24.8 33% 29.87 0.0
02 16:35 NW 6 10.00 Mostly Cloudy SCT070 BKN085 55.4 26.6 33% 29.87 0.0
02 16:15 NW 6 10.00 Mostly Cloudy SCT070 BKN080 55.4 24.8 31% 29.87 0.0
02 15:55 NW 6 10.00 Overcast SCT070 OVC080 53.6 24.8 33% 29.88 0.0
02 15:35 NW 3 10.00 Mostly Cloudy SCT070 BKN080 55.4 26.6 33% 29.89 0.0
02 15:15 W 8 10.00 Overcast OVC080 55.4 26.6 33% 29.9 0.0
02 14:55 NW 5 10.00 Mostly Cloudy BKN080 55.4 26.6 33% 29.9 0.0
02 14:35 W 3 10.00 Partly Cloudy SCT070 55.4 24.8 31% 29.9 0.0
02 14:15 Calm 10.00 Fair CLR 55.4 24.8 31% 29.9 0.0
02 13:55 W 3 10.00 Mostly Cloudy BKN065 55.4 28.4 36% 29.91 0.0
02 13:35 Calm 10.00 Partly Cloudy SCT065 53.6 28.4 38% 29.91 0.0
02 13:15 W 3 10.00 Partly Cloudy SCT065 53.6 28.4 38% 29.91 0.0
02 12:55 N 3 10.00 Partly Cloudy SCT065 53.6 26.6 35% 29.92 0.0
02 12:35 NE 3 10.00 Partly Cloudy SCT065 53.6 24.8 33% 29.93 0.0
02 12:15 NW 6 10.00 Partly Cloudy SCT055 53.6 26.6 35% 29.93 0.0
02 11:55 W 5 10.00 Partly Cloudy SCT055 53.6 28.4 38% 29.94 0.0
02 11:35 NW 7 10.00 Fair CLR 51.8 30.2 44% 29.93 0.0
02 11:15 N 6 10.00 Fair CLR 51.8 32 47% 29.93 0.0
02 10:55 NW 8 10.00 Partly Cloudy SCT042 51.8 32 47% 29.93 0.0
02 10:35 N 8 10.00 Fair CLR 50 32 50% 47 29.94 0.0
02 10:15 N 8 G 16 10.00 Partly Cloudy SCT037 50 32 50% 47 29.94 0.0
02 09:55 NW 9 G 16 10.00 Mostly Cloudy SCT029 BKN037 48.2 33.8 58% 45 29.94 0.0
02 09:35 NW 6 10.00 Mostly Cloudy BKN029 BKN034 48.2 35.6 62% 46 29.94 0.0
02 09:15 N 6 10.00 Fair CLR 46.4 35.6 66% 44 29.94 0.0
02 08:55 N 7 10.00 Partly Cloudy SCT024 46.4 35.6 66% 43 29.95 0.0
02 08:35 NW 8 10.00 Partly Cloudy SCT024 46.4 35.6 66% 43 29.94 0.0
02 08:15 N 3 10.00 Fair CLR 44.6 35.6 71% 29.94 0.0
02 07:55 Calm 10.00 Fair CLR 44.6 35.6 71% 29.94 0.0
02 07:35 Calm 10.00 Mostly Cloudy BKN060 42.8 35.6 76% 29.94 0.0
02 07:15 Calm 10.00 Overcast SCT044 OVC060 42.8 35.6 76% 29.94 0.0
02 06:55 N 3 10.00 Overcast OVC050 42.8 35.6 76% 29.94 0.0
02 06:35 Calm 10.00 Overcast SCT017 BKN044 OVC050 42.8 37.4 81% 29.93 0.0
02 06:15 Calm 10.00 Rain SCT017 SCT030 OVC046 42.8 39.2 87% 29.92 0.0
02 05:55 Calm 10.00 Light Rain SCT015 SCT023 OVC030 42.8 41 93% 29.91 0.0
02 05:35 Calm 4.00 Fog/Mist SCT015 BKN030 OVC038 44.6 42.8 93% 29.9 0.0
02 05:15 Calm 3.00 Drizzle SCT003 BKN026 OVC036 44.6 42.8 93% 29.89 0.0
02 04:55 Calm 1.75 Fog/Mist OVC003 44.6 42.8 93% 29.89 0.0
02 04:35 Calm 0.50 Fog OVC003 44.6 42.8 93% 29.88 0.0
02 04:15 Calm 1.75 Fog/Mist OVC003 44.6 42.8 93% 29.88 0.0
02 03:55 Calm 1.00 Fog/Mist OVC003 44.6 42.8 93% 29.88 0.0
02 03:35 Calm 5.00 Fog/Mist SCT003 BKN042 BKN055 44.6 44.6 100% 29.88 0.0
02 03:15 Calm 7.00 Light Drizzle SCT005 BKN050 OVC080 46.4 44.6 93% 29.89 0.0
02 02:55 Calm 4.00 Light Rain SCT003 BKN009 OVC080 46.4 44.6 93% 29.89 0.0
02 02:35 Calm 2.50 Rain SCT003 SCT008 OVC047 46.4 44.6 93% 29.89 0.0
02 02:15 Calm 4.00 Rain SCT003 SCT007 OVC050 46.4 44.6 93% 29.91 0.0
02 01:55 Calm 4.00 Light Rain OVC050 46.4 44.6 93% 29.91 0.0
02 01:35 Calm 5.00 Rain SCT040 OVC048 46.4 46.4 100% 29.92 0.0
02 01:15 Calm 5.00 Light Rain BKN038 OVC048 46.4 44.6 93% 29.92 0.0
02 00:55 Calm 7.00 Rain BKN036 BKN042 OVC050 46.4 46.4 100% 29.92 0.0
02 00:35 Calm 10.00 Light Rain SCT036 BKN049 OVC060 48.2 46.4 94% 29.92 0.0
02 00:15 Calm 10.00 Light Rain OVC060 48.2 46.4 94% 29.91 0.0
01 23:55 Calm 10.00 Light Rain SCT047 BKN050 OVC070 48.2 46.4 94% 29.9 0.0
01 23:35 Calm 10.00 Light Rain OVC050 48.2 46.4 94% 29.9 0.0
01 23:15 Calm 10.00 Light Rain OVC050 48.2 46.4 94% 29.9 0.0
Date Time (edt) Wind (mph) Vis. (mi.) Weather Sky Cond. Air Dwpt Max. Min. Relative Humidity Wind Chill (°F) Heat Index (°F) altimeter (in) sea level (mb) 1 hr 3 hr 6 hr
6 hour
Temperature (ºF) Pressure Precipitation (in)